User: anonymous   Login
Location: Stigler
(35.2540°N, 95.1230°W)
Time: 02:34:04
(UTC-06:00)
Language:

Cosmos 1805 - Orbit

View from above orbital plane
View from above orbital plane
View from above satellite
View from above satellite

Ground track
Ground track

The orbit data is extracted from the following two-line orbital elements,

1 17191U 86097A   14354.82878624  .00005716  00000-0  36260-3 0   632
2 17191 082.4957 203.4433 0007771 343.5235 016.5740 15.08711045526358
Epoch (UTC): 20 December 2014 19:53:27
Eccentricity: 0.0007771
inclination: 82.4957°
perigee height: 535 km
apogee height: 545 km
right ascension of ascending node: 203.4433°
argument of perigee: 343.5235°
revolutions per day: 15.08711045
mean anomaly at epoch: 16.5740°
orbit number at epoch: 52635

The dashed part of the orbit path shows where the satellite is in the earth's shadow,  

DLR